Weather Roundup
Issued by NWS

Home | Current Version | Previous Version | Graphics & Text | Print | Product List | Glossary Off
Versions: 1 2 3 4 5 6 7 8 9 10 11 12 13 14 15 16 17 18 19 20 21 22 23 24 25 26 27 28 29 30 31 32 33 34 35 36 37 38 39 40 41 42 43 44 45 46 47 48 49 50

000
NZUS93 KARX 221659
HRRWXR

CURRENT HOURLY OBSERVATIONS ACROSS
MUCH OF THE UPPER MISSISSIPPI VALLEY
NATIONAL WEATHER SERVICE LA CROSSE WI
1100 AM CST MON DEC 22 2014


...SOUTHEAST MINNESOTA...


CITY           SKY/WX    TMP DP  RH WIND       PRES   REMARKS
ROCHESTER      MIX PCPN  34  33  96 SE16      29.65F FOG     WCI  24
ROCHESTER/MAYO CLOUDY    34  33  96 E12       29.66F WCI  26
WINONA         CLOUDY    37  34  87 SE10      29.71F WCI  30
AUSTIN         MIX PCPN  34  34 100 SE10      29.63F WCI  26
ALBERT LEA     LGT RAIN  36  36 100 SE14      29.61F WCI  27
DODGE CENTER   LGT SNOW  34  34 100 SE16      29.63F WCI  23
PRESTON        CLOUDY    34  32  93 SE14      29.67F FOG     WCI  24
OWATONNA       RAIN      36  34  93 SE16G22   29.62F WCI  26
FARIBAULT      DRIZZLE   36  34  93 SE16      29.63F WCI  26
$$

...ELSEWHERE IN MINNESOTA...


CITY           SKY/WX    TMP DP  RH WIND       PRES   REMARKS
MINNEAPOLIS    LGT RAIN  36  33  89 SE14      29.65F FOG     WCI  27
INTNL FALLS    LGT RAIN  33  32  96 SE7       29.65F FOG     WCI  27
DULUTH         SNOW      34  32  92 SE10      29.68F VSB 1/2 WCI  26
RED WING       DRIZZLE   36  36 100 SE12G18   29.67F WCI  27
REDWOOD FALLS  LGT RAIN  39  37  92 SE16      29.53F FOG     WCI  30
MANKATO        CLOUDY    37  32  81 SE18      29.59F WCI  27
WORTHINGTON    CLOUDY    37 -11  12 SE16G23   29.49F WCI  28
FAIRMONT       CLOUDY    37  34  87 SE16      29.55F WCI  28
$$

...SOUTHWEST WISCONSIN...


CITY           SKY/WX    TMP DP  RH WIND       PRES   REMARKS
LA CROSSE      CLOUDY    40  32  73 SE8       29.73F WCI  34
PRAIRIE DU CHI CLOUDY    37  32  81 E7        29.74F WCI  32
BOSCOBEL       CLOUDY    39  32  76 E5        29.76F
LONE ROCK      NOT AVBL
PLATTEVILLE    CLOUDY    34  32  92 E13       29.77F WCI  25
FORT MC COY    CLOUDY    38  32  79 SE12      29.77F WCI  30
VIROQUA        CLOUDY    35  35 100 SE9       29.73F WCI  28
WIS DELLS      NOT AVBL
$$

...ELSEWHERE IN WISCONSIN...


CITY           SKY/WX    TMP DP  RH WIND       PRES   REMARKS
MILWAUKEE      CLOUDY    37  31  78 SE14      29.88F HAZE    WCI  28
MADISON        CLOUDY    36  29  75 SE13      29.81F WCI  27
GREEN BAY      CLOUDY    36  33  89 SE13      29.88F FOG     WCI  27
EAU CLAIRE     NOT AVBL
BLACK RVR FLS  CLOUDY    39  32  77 SE8       29.76F WCI  33
MEDFORD        CLOUDY    32  31  96 SE9       29.77F FOG     WCI  24
WAUSAU         CLOUDY    33  31  92 SE9       29.79F FOG     WCI  25
WIS RAPIDS     CLOUDY    35  30  82 SE9       29.81F HAZE    WCI  28
MARSHFIELD     CLOUDY    35  32  88 SE13      29.77F FOG     WCI  26
RICE LAKE      CLOUDY    34  33  96 SE10G17   29.73F FOG     WCI  26
$$

...NORTHEAST IOWA...


CITY           SKY/WX    TMP DP  RH WIND       PRES   REMARKS
DECORAH        CLOUDY    36  34  93 SE10G17   29.69S FOG     WCI  28
MASON CITY     LGT RAIN  36  34  92 SE15      29.62F FOG     WCI  27
CHARLES CITY   CLOUDY    36  36 100 SE13G20   29.66S FOG     WCI  27
OELWEIN        CLOUDY    36  34  93 SE18G24   29.68F FOG     WCI  25
$$

...ELSEWHERE IN IOWA...


CITY           SKY/WX    TMP DP  RH WIND       PRES   REMARKS
DES MOINES     LGT RAIN  40  37  89 SE12      29.59F FOG     WCI  33
IOWA CITY      LGT RAIN  38  34  85 SE10      29.69F FOG     WCI  31
FORT DODGE     CLOUDY    37  36  93 SE9       29.57F WCI  31
$$

...NORTHERN ILLINOIS...


CITY           SKY/WX    TMP DP  RH WIND       PRES   REMARKS
CHICAGO-OHARE  LGTSLEET  35  29  78 SE12      29.85F WCI  27
CHICAGO-MIDWAY LGT RAIN  36  30  79 SE8       29.86F WCI  30
MOLINE         LGT RAIN  37  34  89 E15       29.71F WCI  28
ROCKFORD       LGTSLEET  35  29  78 SE12      29.83F WCI  27
PEORIA         RAIN      38  35  89 SE8G20    29.74F FOG     WCI  32
$$

NOTE: "FAIR" INDICATES FEW OR NO CLOUDS BELOW 12,000 FEET WITH NO
SIGNIFICANT WEATHER AND/OR OBSTRUCTIONS TO VISIBILITY. WIND
SPEEDS ARE IN MILES-PER-HOUR.



USA.gov is the U.S. government's official web portal to all federal, state and local government web resources and services.